Content
SEND FEEDBACK

Daily
Averages
Monthly
Summary
United States of America

PEORIA, ILLINOIS


Home > North America > United States > Illinois
Elevation: 650 feet     Latitude: 40 40N     Longitude: 089 41W

WEATHER
 
SELECT A DAY
Number of Records: 212,212;   Date Range: 1/1/95 - 11/24/14
 
SHARE

PRINT THIS DATA

[ ← Previous Day ]
WEATHER ALMANAC - JANUARY 31, 2013
[ Next Day → ]
[ °C ]   °F
Weather ElementAverageHighLow
Temperature13.6 °F21.9 °F (3:54 am)5 °F (10:40 pm)
Dewpoint5 °F15.1 °F (3:54 am)-4 °F (6:54 pm)
Humidity68.8 %79 % (7:49 am)58 % (6:54 pm)
Barometer30.03 in30.33 in (11:54 pm)29.82 in (1:34 am)
Wind Speed15.1 mph23 mph (6:54 pm)
Wind Gust36.8 mph (7:20 pm)
Weather ElementAverage
Visibility7.7 mi
Wind DirectionWNW (291.3 °)

Weather ElementTotal
Precipitation---
Heating Degree Days51.6 (Base 65)
Averaged from 45 records on January 31, 2013
WEATHER CONDITIONS BREAKOUT
WIND DIRECTION BREAKOUT
WEATHER BY HOUR - JANUARY 31, 2013
[ °C ]   °F
Local TimeTemperatureDewpointHumidityBarometerVisibilityWind DirectionWind SpeedGust SpeedPrecipitationEventsConditions
1:34 AM19.0 °F10.9 °F71 %29.82 in10.0 miWest (270°)12.7 mph18.4 mphOvercast
1:54 AM19.0 °F12.0 °F74 %29.85 in10.0 miWest (280°)11.5 mphOvercast
2:09 AM19.9 °F12.9 °F74 %29.82 in10.0 miWest (270°)12.7 mphOvercast
2:39 AM21.0 °F14.0 °F74 %29.83 in10.0 miWest (280°)16.1 mph28.8 mphOvercast
2:54 AM21.0 °F14.0 °F74 %29.86 in10.0 miWNW (290°)16.1 mph24.2 mphOvercast
3:54 AM21.9 °F15.1 °F75 %29.85 in8.0 miWest (280°)17.3 mph26.5 mph0.00 inSnowLight Snow
4:10 AM21.9 °F15.1 °F75 %29.82 in9.0 miWest (280°)15.0 mph23.0 mph0.00 inOvercast
4:54 AM21.9 °F14.0 °F72 %29.86 in10.0 miWNW (300°)16.1 mph26.5 mph0.00 inOvercast
5:54 AM19.0 °F9.0 °F65 %29.88 in10.0 miWest (280°)19.6 mph27.6 mphScattered Clouds
6:42 AM18.0 °F10.0 °F71 %29.88 in10.0 miWest (280°)11.5 mphMostly Cloudy
6:54 AM17.1 °F10.0 °F74 %29.92 in10.0 miWest (280°)13.8 mph21.9 mphMostly Cloudy
7:10 AM17.1 °F9.0 °F71 %29.89 in10.0 miWest (280°)10.4 mphPartly Cloudy
7:41 AM16.0 °F9.0 °F74 %29.90 in4.0 miWNW (300°)11.5 mph0.00 inSnowLight Snow
7:49 AM15.8 °F10.4 °F79 %29.90 in2.0 miWNW (300°)8.1 mph0.00 inSnowLight Snow
7:54 AM16.0 °F9.0 °F74 %29.94 in3.0 miWNW (290°)10.4 mph19.6 mph0.00 inSnowLight Snow
8:54 AM16.0 °F8.1 °F71 %29.96 in8.0 miWest (280°)15.0 mph24.2 mph0.00 inOvercast
9:44 AM16.0 °F9.0 °F74 %29.95 in1.8 miWest (280°)12.7 mph19.6 mph0.00 inSnowLight Snow
9:54 AM16.0 °F9.0 °F74 %29.99 in2.5 miWest (280°)17.3 mph23.0 mph0.00 inSnowLight Snow
10:01 AM16.0 °F8.1 °F71 %29.96 in5.0 miWNW (290°)16.1 mph0.00 inSnowLight Snow
10:37 AM15.1 °F7.0 °F70 %29.98 in2.0 miWNW (300°)11.5 mph20.7 mph0.00 inSnowLight Snow
10:50 AM15.8 °F6.8 °F68 %29.98 in5.0 miWNW (300°)11.5 mph20.7 mph0.00 inSnowLight Snow
10:54 AM15.1 °F7.0 °F70 %30.02 in6.0 miWNW (300°)12.7 mph20.7 mph0.00 inSnowLight Snow
11:54 AM16.0 °F6.1 °F65 %30.02 in8.0 miWNW (300°)15.0 mph23.0 mph0.00 inOvercast
12:54 PM17.1 °F5.0 °F59 %30.03 in10.0 miWest (280°)19.6 mph31.1 mphOvercast
1:54 PM14.0 °F3.0 °F62 %30.04 in10.0 miWNW (290°)18.4 mph27.6 mph0.00 inMostly Cloudy
2:03 PM14.0 °F3.0 °F62 %30.01 in10.0 miWNW (300°)15.0 mph26.5 mphMostly Cloudy
2:30 PM14.0 °F3.0 °F62 %30.02 in10.0 miWNW (300°)17.3 mph32.2 mphOvercast
2:54 PM12.9 °F3.0 °F65 %30.07 in9.0 miWNW (290°)18.4 mph28.8 mphOvercast
3:54 PM12.0 °F3.0 °F67 %30.11 in5.0 miWNW (290°)19.6 mph29.9 mphHaze
4:33 PM10.9 °F0.0 °F61 %30.09 in10.0 miWNW (290°)17.3 mph27.6 mph0.00 inMostly Cloudy
4:54 PM10.0 °F1.0 °F67 %30.14 in9.0 miWNW (290°)13.8 mph26.5 mph0.00 inMostly Cloudy
5:14 PM10.0 °F0.0 °F64 %30.11 in9.0 miWNW (300°)17.3 mph29.9 mphOvercast
5:54 PM9.0 °F-0.9 °F64 %30.17 in10.0 miWNW (300°)16.1 mph27.6 mphMostly Cloudy
6:13 PM8.1 °F-2.9 °F61 %30.14 in10.0 miWNW (300°)19.6 mph31.1 mphScattered Clouds
6:34 PM8.1 °F1.0 °F73 %30.15 in3.0 miWNW (300°)13.8 mph24.2 mph0.00 inSnowLight Snow
6:54 PM8.1 °F-4.0 °F58 %30.20 in10.0 miWNW (290°)23.0 mph34.5 mph0.00 inMostly Cloudy
7:20 PM8.1 °F-4.0 °F58 %30.18 in10.0 miWNW (290°)19.6 mph36.8 mphOvercast
7:54 PM7.0 °F-2.9 °F64 %30.23 in10.0 miWNW (300°)16.1 mph33.4 mphOvercast
8:54 PM6.1 °F-2.0 °F69 %30.26 in10.0 miWNW (290°)10.4 mph25.3 mphMostly Cloudy
9:54 PM6.1 °F-2.9 °F67 %30.29 in4.0 miWNW (300°)16.1 mph32.2 mph0.00 inOvercast
10:28 PM6.1 °F-0.9 °F73 %30.26 in2.0 miNW (310°)12.7 mph24.2 mph0.00 inSnowLight Snow
10:40 PM5.0 °F-4.0 °F66 %30.26 in7.0 miWNW (300°)19.6 mph27.6 mph0.00 inSnowLight Snow
10:54 PM5.0 °F-4.0 °F66 %30.31 in10.0 miWNW (300°)17.3 mph27.6 mph0.00 inScattered Clouds
11:38 PM5.0 °F-2.0 °F73 %30.29 in7.0 miWNW (300°)13.8 mph20.7 mphMostly Cloudy
11:54 PM5.0 °F-2.0 °F73 %30.33 in5.0 miNW (310°)11.5 mphHaze
Hourly data recorded from KPIA, located miles away from Peoria, Illinois







STORIES FROM OUR PARTNERS